| time (UTC) | temp F | wind direction | speed knots | gust knots | rain 1hr in | rain 24hr in | rain mn in | humidity % | barometer mb |
| 20260504231803 | 35 | 206 | 0.9 | 3.5 | 0.01 | 0.02 | 0.02 | 90 | 992.5 |
| 20260504230903 | 35 | 216 | 0.0 | 0.9 | 0.02 | 0.02 | 0.02 | 89 | 992.6 |
| 20260504230003 | 34 | 222 | 0.9 | 3.5 | 0.02 | 0.02 | 0.02 | 89 | 992.7 |
| 20260504225403 | 34 | 237 | 0.9 | 3.5 | 0.01 | 0.01 | 0.01 | 88 | 992.7 |
| 20260504224503 | 34 | 252 | 0.0 | 1.7 | 0.01 | 0.01 | 0.01 | 87 | 992.9 |
| 20260504223603 | 34 | 252 | 0.0 | 1.7 | 0.01 | 0.01 | 0.01 | 87 | 992.9 |
| 20260504222703 | 35 | 253 | 0.0 | 1.7 | 0.01 | 0.01 | 0.01 | 86 | 993.0 |
| 20260504221803 | 35 | 235 | 0.9 | 3.5 | 0.01 | 0.01 | 0.01 | 84 | 993.1 |
| 20260504220903 | 36 | 263 | 1.7 | 5.2 | 0.00 | 0.00 | 0.00 | 80 | 993.2 |
| 20260504220003 | 38 | 269 | 1.7 | 7.0 | 0.00 | 0.00 | 0.00 | 75 | 993.3 |
| 20260504215403 | 38 | 213 | 0.0 | 1.7 | 0.00 | 0.00 | 0.00 | 72 | 993.2 |
| 20260504214503 | 38 | 233 | 0.9 | 2.6 | 0.00 | 0.00 | 0.00 | 71 | 993.0 |
| 20260504213624 | 39 | 269 | 0.9 | 5.2 | 0.00 | 0.00 | 0.00 | 69 | 992.9 |
| 20260504212703 | 39 | 253 | 1.7 | 5.2 | 0.00 | 0.00 | 0.00 | 68 | 993.0 |
| 20260504211803 | 39 | 280 | 5.2 | 8.7 | 0.00 | 0.00 | 0.00 | 66 | 992.9 |
| 20260504210903 | 39 | 283 | 5.2 | 10.4 | 0.00 | 0.00 | 0.00 | 64 | 993.0 |
| 20260504210004 | 39 | 301 | 7.0 | 13.9 | 0.00 | 0.00 | 0.00 | 63 | 992.9 |
| 20260504205403 | 39 | 308 | 7.8 | 13.9 | 0.00 | 0.00 | 0.00 | 63 | 992.9 |
| 20260504204503 | 40 | 301 | 7.8 | 13.0 | 0.00 | 0.00 | 0.00 | 63 | 993.1 |
| 20260504203603 | 40 | 301 | 7.0 | 13.9 | 0.00 | 0.00 | 0.00 | 62 | 993.2 |
| 20260504202703 | 40 | 307 | 5.2 | 11.3 | 0.00 | 0.00 | 0.00 | 63 | 993.1 |
| 20260504201803 | 40 | 283 | 4.3 | 7.8 | 0.00 | 0.00 | 0.00 | 63 | 993.3 |
| 20260504200903 | 40 | 277 | 6.1 | 13.0 | 0.00 | 0.00 | 0.00 | 62 | 993.6 |
| 20260504200003 | 40 | 270 | 3.5 | 9.6 | 0.00 | 0.00 | 0.00 | 63 | 993.8 |
| 20260504195403 | 40 | 273 | 2.6 | 7.0 | 0.00 | 0.00 | 0.00 | 64 | 993.8 |
| 20260504194503 | 41 | 277 | 3.5 | 7.0 | 0.00 | 0.00 | 0.00 | 63 | 993.1 |
| 20260504193603 | 41 | 286 | 3.5 | 8.7 | 0.00 | 0.00 | 0.00 | 63 | 993.3 |
| 20260504192703 | 42 | 291 | 3.5 | 8.7 | 0.00 | 0.00 | 0.00 | 61 | 993.2 |
| 20260504191803 | 43 | 281 | 4.3 | 9.6 | 0.00 | 0.00 | 0.00 | 59 | 993.5 |
| 20260504190903 | 44 | 286 | 5.2 | 10.4 | 0.00 | 0.00 | 0.00 | 58 | 993.6 |
| 20260504190003 | 45 | 317 | 5.2 | 9.6 | 0.00 | 0.00 | 0.00 | 57 | 993.4 |
| 20260504185403 | 46 | 313 | 5.2 | 10.4 | 0.00 | 0.00 | 0.00 | 57 | 993.5 |
| 20260504184503 | 46 | 316 | 5.2 | 10.4 | 0.00 | 0.00 | 0.00 | 57 | 993.6 |
| 20260504183603 | 46 | 317 | 3.5 | 7.8 | 0.00 | 0.00 | 0.00 | 57 | 993.6 |
| 20260504182703 | 46 | 323 | 5.2 | 9.6 | 0.00 | 0.00 | 0.00 | 56 | 993.6 |
| 20260504181803 | 47 | 324 | 7.0 | 11.3 | 0.00 | 0.00 | 0.00 | 55 | 993.6 |
| 20260504180924 | 47 | 325 | 7.0 | 11.3 | 0.00 | 0.00 | 0.00 | 54 | 993.5 |
| 20260504180003 | 48 | 325 | 7.0 | 11.3 | 0.00 | 0.00 | 0.00 | 53 | 993.6 |
| 20260504175403 | 48 | 323 | 6.1 | 10.4 | 0.00 | 0.00 | 0.00 | 53 | 993.7 |
| 20260504174503 | 48 | 326 | 7.0 | 10.4 | 0.00 | 0.00 | 0.00 | 53 | 993.8 |
| 20260504173603 | 49 | 327 | 6.1 | 10.4 | 0.00 | 0.00 | 0.00 | 52 | 993.7 |
| 20260504172703 | 49 | 324 | 5.2 | 8.7 | 0.00 | 0.00 | 0.00 | 52 | 993.7 |
| 20260504171803 | 50 | 317 | 6.1 | 10.4 | 0.00 | 0.00 | 0.00 | 50 | 993.8 |
| 20260504170903 | 50 | 321 | 6.1 | 10.4 | 0.00 | 0.00 | 0.00 | 48 | 993.9 |
| 20260504150904 | 56 | 265 | 4.3 | 10.4 | 0.00 | 0.00 | 0.00 | 37 | 994.8 |
| 20260504140925 | 55 | 173 | 3.5 | 7.8 | 0.00 | 0.00 | 0.00 | 39 | 995.5 |
| 20260504081804 | 50 | 158 | 5.2 | 9.6 | 0.00 | 0.00 | 0.00 | 42 | 1001.4 |
| 20260504080904 | 49 | 157 | 6.1 | 11.3 | 0.00 | 0.00 | 0.00 | 41 | 1001.5 |
| 20260504050004 | 39 | 151 | 2.6 | 5.2 | 0.00 | 0.00 | 0.00 | 67 | 1003.6 |
| 20260504045404 | 39 | 151 | 2.6 | 6.1 | 0.00 | 0.00 | 0.00 | 67 | 1003.8 |
| 20260504044504 | 38 | 168 | 2.6 | 6.1 | 0.00 | 0.00 | 0.00 | 69 | 1003.3 |
| 20260504043604 | 36 | 152 | 1.7 | 4.3 | 0.00 | 0.00 | 0.00 | 70 | 1003.8 |
| 20260504042704 | 35 | 157 | 2.6 | 5.2 | 0.00 | 0.00 | 0.00 | 71 | 1004.0 |
| 20260504041804 | 33 | 169 | 2.6 | 5.2 | 0.00 | 0.00 | 0.00 | 73 | 1003.8 |
| 20260504040904 | 32 | 174 | 1.7 | 4.3 | 0.00 | 0.00 | 0.00 | 76 | 1003.6 |
| 20260504040004 | 30 | 174 | 0.0 | 2.6 | 0.00 | 0.00 | 0.00 | 79 | 1003.5 |
| 20260504035404 | 29 | 174 | 0.9 | 2.6 | 0.00 | 0.00 | 0.00 | 79 | 1002.8 |
| 20260504034504 | 28 | 174 | 0.9 | 2.6 | 0.00 | 0.00 | 0.00 | 79 | 1005.2 |
| 20260504033604 | 28 | 174 | 0.9 | 3.5 | 0.00 | 0.00 | 0.00 | 79 | 1004.5 |
| 20260504032725 | 28 | 174 | 0.9 | 3.5 | 0.00 | 0.00 | 0.00 | 79 | 1004.4 |
| 20260504031804 | 28 | 174 | 0.0 | 3.5 | 0.00 | 0.00 | 0.00 | 80 | 1004.4 |
| 20260504030904 | 28 | 171 | 0.0 | 0.9 | 0.00 | 0.00 | 0.00 | 81 | 1004.4 |
| 20260504030004 | 27 | 171 | 0.9 | 3.5 | 0.00 | 0.00 | 0.00 | 81 | 1004.5 |
| 20260504025404 | 27 | 175 | 0.9 | 5.2 | 0.00 | 0.00 | 0.00 | 82 | 1004.4 |
| 20260504024504 | 27 | 175 | 1.7 | 6.1 | 0.00 | 0.00 | 0.00 | 82 | 1004.5 |
| 20260504023604 | 26 | 165 | 0.0 | 1.7 | 0.00 | 0.00 | 0.00 | 83 | 1004.5 |
| 20260504022704 | 26 | 211 | 0.9 | 4.3 | 0.00 | 0.00 | 0.00 | 83 | 1004.5 |
| 20260504021804 | 26 | 307 | 0.0 | 3.5 | 0.00 | 0.00 | 0.00 | 82 | 1004.5 |
| 20260504020904 | 26 | 0 | 0.0 | 0.0 | 0.00 | 0.00 | 0.00 | 83 | 1004.6 |
| 20260504015425 | 26 | 307 | 0.0 | 0.9 | 0.00 | 0.00 | 0.00 | 83 | 1004.7 |
| 20260504014504 | 26 | 307 | 0.0 | 0.9 | 0.00 | 0.00 | 0.00 | 83 | 1004.8 |
| 20260504013604 | 26 | 0 | 0.0 | 0.0 | 0.00 | 0.00 | 0.00 | 83 | 1004.8 |
| 20260504012725 | 26 | 0 | 0.0 | 0.0 | 0.00 | 0.00 | 0.00 | 83 | 1004.9 |
| 20260504011804 | 26 | 0 | 0.0 | 0.0 | 0.00 | 0.00 | 0.00 | 83 | 1004.9 |
| 20260504010904 | 26 | 0 | 0.0 | 0.0 | 0.00 | 0.00 | 0.00 | 83 | 1004.9 |
| 20260504010004 | 26 | 0 | 0.0 | 0.0 | 0.00 | 0.00 | 0.00 | 83 | 1004.8 |
| 20260504005404 | 26 | 0 | 0.0 | 0.0 | 0.00 | 0.00 | 0.00 | 82 | 1004.9 |
| 20260504004504 | 26 | 0 | 0.0 | 0.0 | 0.00 | 0.00 | 0.00 | 81 | 1004.9 |
| 20260504003604 | 27 | 0 | 0.0 | 0.0 | 0.00 | 0.00 | 0.00 | 81 | 1005.0 |
| 20260504002704 | 27 | 0 | 0.0 | 0.0 | 0.00 | 0.00 | 0.00 | 80 | 1005.0 |
| 20260504001804 | 28 | 0 | 0.0 | 0.0 | 0.00 | 0.00 | 0.00 | 79 | 1005.1 |
| 20260504000904 | 28 | 0 | 0.0 | 0.0 | 0.00 | 0.00 | 0.00 | 80 | 1005.1 |
| 20260504000004 | 28 | 0 | 0.0 | 0.0 | 0.00 | 0.00 | 0.00 | 80 | 1005.2 |
| 20260503235404 | 28 | 0 | 0.0 | 0.0 | 0.00 | 0.00 | 0.00 | 80 | 1005.1 |
| 20260503234504 | 28 | 307 | 0.0 | 0.9 | 0.00 | 0.00 | 0.00 | 81 | 1005.1 |
| 20260503233604 | 28 | 307 | 0.0 | 1.7 | 0.00 | 0.00 | 0.00 | 80 | 1005.2 |
| 20260503232704 | 28 | 307 | 0.0 | 1.7 | 0.00 | 0.00 | 0.00 | 80 | 1005.2 |